Weather History for Darlington, SC

Change the Weather History Date:

Friday, February 21, 2014

  Actual Average (KFLO) Record (KFLO)
Temperature  
Mean Temperature 58 °F 50 °F  
Max Temperature 71 °F 61 °F 81 °F (1997)
Min Temperature 46 °F 39 °F 21 °F (1959)
Degree Days  
Heating Degree Days 6 15  
Month to date heating degree days 363  
Since 1 July heating degree days 1965  
Cooling Degree Days 0 0  
Month to date cooling degree days 0  
Year to date cooling degree days 2  
Growing Degree Days 8 (Base 50)    
Moisture  
Dew Point 55 °F    
Average Humidity 73    
Maximum Humidity 88    
Minimum Humidity 42    
Precipitation  
Precipitation 0.37 in 0.11 in 1.04 in (1954)
Month to date precipitation 2.17  
Year to date precipitation 5.40  
Sea Level Pressure  
Sea Level Pressure 29.95 in    
Wind  
Wind Speed 13 mph (SSW)    
Max Wind Speed 26 mph    
Max Gust Speed 40 mph    
Visibility 10 miles    
Events Thunderstorm    
T = Trace of Precipitation, MM = Missing Value Source: NWS Daily Summary

Daily Weather History Graph

Daily Weather History Graph

Search for Another Location

Airport:

Trip Planner

Search our weather history database for the weather conditions in past years. The results will help you decide how hot, cold, wet, or windy it might be!

Date:

Astronomy

Feb. 21, 2014 Rise Set
Actual Time 6:58 AM EST 6:08 PM EST
Civil Twilight 6:32 AM EST 6:34 PM EST
Nautical Twilight 6:03 AM EST 7:03 PM EST
Astronomical Twilight 5:34 AM EST 7:32 PM EST
Moon No Moon Rise 10:38 AM EST
Length of Visible Light 12h 01m
Length of Day
11h 10m
Waning Gibbous, 61% of the Moon is Illuminated
Feb 21
Waning Gibbous
Feb 22
Last Quarter
Mar 1
New
Mar 8
First Quarter
Mar 16
Full

Hourly Weather History & Observations

Time (EST) Temp. Dew Point Humidity Pressure Visibility Wind Dir Wind Speed Gust Speed Precip Events Conditions
12:15 AM 66.2 °F 60.8 °F 83% 30.02 in 10.0 mi South 12.7 mph 19.6 mph N/A   Overcast
12:35 AM 66.2 °F 60.8 °F 83% 30.02 in 10.0 mi South 12.7 mph - N/A   Overcast
12:55 AM 66.2 °F 60.8 °F 83% 30.00 in 10.0 mi SSE 13.8 mph - N/A   Overcast
1:15 AM 66.2 °F 60.8 °F 83% 30.00 in 10.0 mi South 13.8 mph 18.4 mph N/A   Overcast
1:35 AM 66.2 °F 60.8 °F 83% 30.00 in 10.0 mi South 12.7 mph 18.4 mph N/A   Overcast
1:55 AM 66.2 °F 60.8 °F 83% 30.00 in 10.0 mi South 11.5 mph - N/A   Overcast
2:15 AM 66.2 °F 60.8 °F 83% 29.99 in 10.0 mi South 11.5 mph 19.6 mph N/A   Overcast
2:35 AM 66.2 °F 60.8 °F 83% 29.99 in 10.0 mi South 11.5 mph 20.7 mph N/A   Overcast
2:55 AM 66.2 °F 60.8 °F 83% 29.99 in 10.0 mi South 13.8 mph 19.6 mph N/A   Overcast
3:15 AM 66.2 °F 60.8 °F 83% 29.99 in 10.0 mi SSW 13.8 mph - N/A   Overcast
3:35 AM 66.2 °F 60.8 °F 83% 29.99 in 10.0 mi SSW 15.0 mph - N/A   Overcast
3:55 AM 66.2 °F 60.8 °F 83% 29.98 in 10.0 mi South 15.0 mph 23.0 mph N/A   Overcast
4:15 AM 66.2 °F 60.8 °F 83% 29.96 in 10.0 mi South 13.8 mph 20.7 mph N/A   Overcast
4:35 AM 66.2 °F 60.8 °F 83% 29.95 in 10.0 mi South 13.8 mph 20.7 mph N/A   Overcast
4:55 AM 66.2 °F 60.8 °F 83% 29.94 in 10.0 mi South 17.3 mph 25.3 mph N/A   Overcast
5:15 AM 66.2 °F 60.8 °F 83% 29.96 in 10.0 mi South 17.3 mph 25.3 mph N/A   Overcast
5:35 AM 66.2 °F 60.8 °F 83% 29.94 in 10.0 mi South 12.7 mph 20.7 mph N/A   Overcast
5:55 AM 66.2 °F 60.8 °F 83% 29.94 in 10.0 mi South 10.4 mph 19.6 mph N/A   Overcast
6:15 AM 66.2 °F 60.8 °F 83% 29.93 in 10.0 mi South 13.8 mph 20.7 mph N/A   Overcast
6:35 AM 66.2 °F 60.8 °F 83% 29.93 in 10.0 mi South 18.4 mph 23.0 mph N/A   Overcast
6:55 AM 66.2 °F 60.8 °F 83% 29.93 in 10.0 mi South 16.1 mph 20.7 mph N/A   Overcast
7:15 AM 66.2 °F 60.8 °F 83% 29.93 in 10.0 mi South 13.8 mph 20.7 mph N/A   Overcast
7:35 AM 66.2 °F 62.6 °F 88% 29.92 in 10.0 mi South 17.3 mph 23.0 mph N/A   Overcast
7:55 AM 68.0 °F 60.8 °F 78% 29.93 in 10.0 mi South 15.0 mph 19.6 mph N/A   Mostly Cloudy
8:15 AM 68.0 °F 60.8 °F 78% 29.94 in 10.0 mi South 12.7 mph - N/A   Partly Cloudy
8:35 AM 68.0 °F 62.6 °F 83% 29.93 in 10.0 mi South 12.7 mph 26.5 mph N/A   Clear
8:55 AM 69.8 °F 62.6 °F 78% 29.93 in 10.0 mi South 12.7 mph 21.9 mph N/A   Scattered Clouds
9:15 AM 69.8 °F 62.6 °F 78% 29.93 in 10.0 mi South 13.8 mph 19.6 mph N/A   Overcast
9:35 AM 69.8 °F 62.6 °F 78% 29.93 in 10.0 mi SSW 12.7 mph 18.4 mph N/A   Overcast
9:55 AM 71.6 °F 62.6 °F 73% 29.93 in 10.0 mi SSW 21.9 mph 26.5 mph N/A   Overcast
10:15 AM 71.6 °F 60.8 °F 69% 29.92 in 10.0 mi SSW 19.6 mph 33.4 mph N/A   Overcast
10:35 AM 71.6 °F 62.6 °F 73% 29.91 in 10.0 mi SSW 18.4 mph 25.3 mph N/A Thunderstorm Mostly Cloudy
10:55 AM 71.6 °F 62.6 °F 73% 29.90 in 10.0 mi South 19.6 mph 26.5 mph N/A   Overcast
11:15 AM 69.8 °F 62.6 °F 78% 29.91 in 10.0 mi SSW 17.3 mph 24.2 mph N/A Thunderstorm Overcast
11:35 AM 62.6 °F 57.2 °F 82% 29.93 in 3.0 mi SW 26.5 mph 40.3 mph 0.22 in Thunderstorm Thunderstorm
11:55 AM 64.4 °F 59.0 °F 83% 29.91 in 10.0 mi SW 12.7 mph - 0.29 in Thunderstorm Thunderstorm
12:15 PM 62.6 °F 59.0 °F 88% 29.86 in 10.0 mi South 10.4 mph - 0.07 in Thunderstorm Overcast
12:35 PM 64.4 °F 60.8 °F 88% 29.89 in 10.0 mi SW 13.8 mph - 0.08 in Thunderstorm Mostly Cloudy
12:55 PM 62.6 °F 59.0 °F 88% 29.89 in 10.0 mi SW 12.7 mph - 0.08 in   Mostly Cloudy
1:15 PM 62.6 °F 59.0 °F 88% 29.89 in 10.0 mi SSW 13.8 mph 19.6 mph N/A   Mostly Cloudy
1:35 PM 62.6 °F 57.2 °F 82% 29.89 in 10.0 mi SW 19.6 mph - N/A   Scattered Clouds
1:55 PM 62.6 °F 57.2 °F 82% 29.89 in 10.0 mi SW 16.1 mph 21.9 mph N/A   Clear
2:15 PM 64.4 °F 57.2 °F 77% 29.88 in 10.0 mi SW 13.8 mph 20.7 mph N/A   Scattered Clouds
2:35 PM 64.4 °F 59.0 °F 83% 29.87 in 10.0 mi SW 16.1 mph 20.7 mph N/A   Mostly Cloudy
2:55 PM 66.2 °F 59.0 °F 78% 29.87 in 10.0 mi SW 13.8 mph 25.3 mph N/A   Mostly Cloudy
3:15 PM 66.2 °F 59.0 °F 78% 29.86 in 10.0 mi SW 15.0 mph 21.9 mph N/A   Mostly Cloudy
3:35 PM 68.0 °F 59.0 °F 73% 29.86 in 10.0 mi SW 18.4 mph 23.0 mph N/A   Mostly Cloudy
3:55 PM 68.0 °F 59.0 °F 73% 29.86 in 10.0 mi SW 16.1 mph 20.7 mph N/A   Scattered Clouds
4:15 PM 68.0 °F 57.2 °F 68% 29.87 in 10.0 mi SW 15.0 mph 21.9 mph N/A   Mostly Cloudy
4:35 PM 68.0 °F 57.2 °F 68% 29.87 in 10.0 mi SW 15.0 mph 19.6 mph N/A   Scattered Clouds
4:55 PM 69.8 °F 55.4 °F 60% 29.88 in 10.0 mi WSW 15.0 mph 20.7 mph N/A   Scattered Clouds
5:15 PM 68.0 °F 55.4 °F 64% 29.89 in 10.0 mi WSW 15.0 mph 20.7 mph N/A   Clear
5:35 PM 66.2 °F 53.6 °F 64% 29.91 in 10.0 mi WSW 11.5 mph - N/A   Clear
5:55 PM 66.2 °F 53.6 °F 64% 29.92 in 10.0 mi West 11.5 mph 19.6 mph N/A   Clear
6:15 PM 66.2 °F 42.8 °F 43% 29.94 in 10.0 mi WSW 12.7 mph 18.4 mph N/A   Clear
6:35 PM 64.4 °F 41.0 °F 42% 29.95 in 10.0 mi WSW 10.4 mph - N/A   Clear
6:55 PM 62.6 °F 42.8 °F 48% 29.97 in 10.0 mi WSW 9.2 mph - N/A   Clear
7:15 PM 60.8 °F 41.0 °F 48% 29.98 in 10.0 mi WSW 6.9 mph - N/A   Clear
7:35 PM 60.8 °F 39.2 °F 45% 29.99 in 10.0 mi West 6.9 mph - N/A   Clear
7:55 PM 59.0 °F 37.4 °F 45% 30.00 in 10.0 mi West 6.9 mph - N/A   Clear
8:15 PM 57.2 °F 39.2 °F 51% 30.01 in 10.0 mi WSW 6.9 mph - N/A   Clear
8:35 PM 57.2 °F 37.4 °F 48% 30.01 in 10.0 mi West 6.9 mph - N/A   Clear
8:55 PM 57.2 °F 37.4 °F 48% 30.01 in 10.0 mi West 9.2 mph - N/A   Clear
9:15 PM 57.2 °F 35.6 °F 44% 30.01 in 10.0 mi WSW 8.1 mph - N/A   Clear
9:35 PM 55.4 °F 35.6 °F 47% 30.02 in 10.0 mi WSW 6.9 mph - N/A   Clear
9:55 PM 53.6 °F 37.4 °F 54% 30.03 in 10.0 mi WSW 6.9 mph - N/A   Clear
10:15 PM 51.8 °F 35.6 °F 54% 30.03 in 10.0 mi WSW 5.8 mph - N/A   Clear
10:35 PM 50.0 °F 37.4 °F 62% 30.04 in 10.0 mi WSW 5.8 mph - N/A   Clear
10:55 PM 48.2 °F 37.4 °F 66% 30.04 in 10.0 mi Calm Calm - N/A   Clear
11:15 PM 46.4 °F 37.4 °F 71% 30.04 in 10.0 mi Calm Calm - N/A   Clear
11:35 PM 46.4 °F 37.4 °F 71% 30.04 in 10.0 mi Calm Calm - N/A   Clear
11:55 PM 46.4 °F 37.4 °F 71% 30.04 in 10.0 mi Calm Calm - N/A   Clear